When you browse on this site, cookies collect data to enhance your experience and personalize the content and advertising you see.
Visit our Privacy Policy to learn more. By continuing to use the site, you agree to this use of cookies and data.
  • In United Kingdom
  • List of Countries
  • For 7 days
  • Water Temperature
  • Satellite Maps
  • Weather Map
  • Weather Widgets
  • user-avatar
    Login

    Hourly Weather Lons-le-Saunier

    Today, 24 April, Wednesday

    Time Temperature Precipitation Wind Pressure Humidity
    00:00 +13°C° 0.5 mm 2 mps 717 mmHg 93%
    01:00 +12°C° 0 mm 2 mps 717 mmHg 93%
    02:00 +12°C° 0 mm 2 mps 718 mmHg 93%
    03:00 +10°C° 0 mm 2 mps 718 mmHg 93%
    04:00 +12°C° 0 mm 1 mps 718 mmHg 92%
    05:00 +12°C° 0 mm 1 mps 718 mmHg 91%
    06:00 +12°C° 0 mm 1 mps 718 mmHg 90%
    07:00 +14°C° 0.2 mm 1 mps 718 mmHg 88%
    08:00 +15°C° 0.2 mm 1 mps 718 mmHg 85%
    09:00 +16°C° 0.2 mm 1 mps 718 mmHg 83%
    10:00 +15°C° 0.9 mm 2 mps 719 mmHg 85%
    11:00 +14°C° 0.9 mm 3 mps 719 mmHg 88%
    12:00 +13°C° 0.9 mm 3 mps 719 mmHg 90%
    13:00 +12°C° 1.3 mm 4 mps 720 mmHg 87%
    14:00 +11°C° 1.3 mm 4 mps 720 mmHg 84%
    15:00 +10°C° 1.3 mm 5 mps 720 mmHg 80%
    16:00 +10°C° 0 mm 5 mps 720 mmHg 72%
    17:00 +12°C° 0 mm 5 mps 721 mmHg 64%
    18:00 +13°C° 0 mm 6 mps 721 mmHg 56%
    19:00 +12°C° 0 mm 5 mps 722 mmHg 56%
    20:00 +12°C° 0 mm 5 mps 722 mmHg 56%
    21:00 +10°C° 0 mm 5 mps 723 mmHg 55%
    22:00 +11°C° 0 mm 4 mps 723 mmHg 57%
    23:00 +10°C° 0 mm 4 mps 723 mmHg 59%

    Tomorrow, 25 April, Thursday

    Time Temperature Precipitation Wind Pressure Humidity
    00:00 +10°C° 0 mm 3 mps 723 mmHg 61%
    01:00 +10°C° 0 mm 3 mps 723 mmHg 62%
    02:00 +9°C° 0 mm 3 mps 723 mmHg 62%
    03:00 +9°C° 0 mm 2 mps 723 mmHg 63%
    04:00 +9°C° 0 mm 2 mps 723 mmHg 65%
    05:00 +9°C° 0 mm 2 mps 723 mmHg 66%
    06:00 +11°C° 0 mm 1 mps 723 mmHg 68%
    07:00 +13°C° 0 mm 2 mps 723 mmHg 61%
    08:00 +15°C° 0 mm 2 mps 723 mmHg 55%
    09:00 +17°C° 0 mm 2 mps 723 mmHg 49%
    10:00 +17°C° 0.2 mm 2 mps 723 mmHg 55%
    11:00 +17°C° 0.2 mm 2 mps 723 mmHg 61%
    12:00 +17°C° 0.2 mm 3 mps 723 mmHg 67%
    13:00 +13°C° 0.8 mm 3 mps 724 mmHg 76%
    14:00 +11°C° 0.8 mm 3 mps 724 mmHg 86%
    15:00 +9°C° 0.8 mm 3 mps 724 mmHg 95%
    16:00 +8°C° 2.5 mm 2 mps 724 mmHg 96%
    17:00 +7°C° 2.5 mm 2 mps 725 mmHg 97%
    18:00 +7°C° 2.5 mm 1 mps 725 mmHg 97%
    19:00 +7°C° 1.6 mm 1 mps 726 mmHg 97%
    20:00 +7°C° 1.6 mm 1 mps 727 mmHg 96%
    21:00 +7°C° 1.6 mm 1 mps 728 mmHg 96%
    22:00 +7°C° 0.8 mm 1 mps 728 mmHg 96%
    23:00 +7°C° 0.8 mm 1 mps 728 mmHg 95%

    Day after tomorrow, 26 April, Friday

    Time Temperature Precipitation Wind Pressure Humidity
    00:00 +7°C° 0.8 mm 1 mps 728 mmHg 95%
    01:00 +7°C° 0.6 mm 1 mps 728 mmHg 95%
    02:00 +7°C° 0.6 mm 1 mps 728 mmHg 96%
    03:00 +7°C° 0.6 mm 1 mps 727 mmHg 96%
    04:00 +7°C° 0.5 mm 1 mps 728 mmHg 95%
    05:00 +7°C° 0.5 mm 1 mps 728 mmHg 95%
    06:00 +7°C° 0.5 mm 1 mps 728 mmHg 94%
    07:00 +8°C° 0.1 mm 1 mps 729 mmHg 93%
    08:00 +8°C° 0.1 mm 1 mps 729 mmHg 92%
    09:00 +9°C° 0.1 mm 1 mps 730 mmHg 91%
    10:00 +9°C° 0 mm 2 mps 730 mmHg 79%
    11:00 +12°C° 0 mm 2 mps 730 mmHg 67%
    12:00 +14°C° 0 mm 2 mps 731 mmHg 55%
    13:00 +14°C° 0 mm 2 mps 731 mmHg 54%
    14:00 +15°C° 0 mm 2 mps 731 mmHg 52%
    15:00 +15°C° 0 mm 2 mps 731 mmHg 50%
    16:00 +14°C° 0.2 mm 2 mps 731 mmHg 62%
    17:00 +12°C° 0.2 mm 2 mps 731 mmHg 73%
    18:00 +10°C° 0.2 mm 2 mps 731 mmHg 85%
    19:00 +9°C° 0.4 mm 2 mps 732 mmHg 89%
    20:00 +9°C° 0.4 mm 2 mps 733 mmHg 94%
    21:00 +8°C° 0.4 mm 2 mps 734 mmHg 98%
    22:00 +8°C° 0.3 mm 2 mps 734 mmHg 98%
    23:00 +8°C° 0.3 mm 2 mps 734 mmHg 98%

    27 April, Saturday

    Time Temperature Precipitation Wind Pressure Humidity
    00:00 +8°C° 0.3 mm 3 mps 734 mmHg 98%
    01:00 +7°C° 0.1 mm 3 mps 734 mmHg 97%
    02:00 +6°C° 0.1 mm 2 mps 733 mmHg 97%
    03:00 +6°C° 0.1 mm 2 mps 733 mmHg 97%
    04:00 +4°C° 0.1 mm 3 mps 733 mmHg 96%
    05:00 +4°C° 0.1 mm 3 mps 733 mmHg 95%
    06:00 +4°C° 0.1 mm 3 mps 732 mmHg 94%
    07:00 +5°C° 0.3 mm 4 mps 732 mmHg 93%
    08:00 +6°C° 0.3 mm 4 mps 732 mmHg 92%
    09:00 +7°C° 0.3 mm 4 mps 732 mmHg 91%
    10:00 +7°C° 0.4 mm 4 mps 732 mmHg 89%
    11:00 +8°C° 0.4 mm 4 mps 732 mmHg 88%
    12:00 +8°C° 0.4 mm 4 mps 732 mmHg 86%
    13:00 +10°C° 0.4 mm 4 mps 732 mmHg 84%
    14:00 +10°C° 0.4 mm 4 mps 732 mmHg 82%
    15:00 +10°C° 0.4 mm 4 mps 732 mmHg 80%
    16:00 +8°C° 0.6 mm 4 mps 732 mmHg 84%
    17:00 +8°C° 0.6 mm 3 mps 732 mmHg 88%
    18:00 +8°C° 0.6 mm 3 mps 733 mmHg 92%
    19:00 +7°C° 0.9 mm 3 mps 733 mmHg 94%
    20:00 +6°C° 0.9 mm 4 mps 733 mmHg 95%
    21:00 +5°C° 0.9 mm 4 mps 733 mmHg 97%
    22:00 +5°C° 1.6 mm 4 mps 733 mmHg 97%
    23:00 +5°C° 1.6 mm 4 mps 733 mmHg 97%

    28 April, Sunday

    Time Temperature Precipitation Wind Pressure Humidity
    00:00 +5°C° 1.6 mm 4 mps 733 mmHg 98%
    01:00 +5°C° 0.9 mm 4 mps 733 mmHg 98%
    02:00 +5°C° 0.9 mm 3 mps 733 mmHg 98%
    03:00 +5°C° 0.9 mm 3 mps 733 mmHg 98%
    04:00 +5°C° 0.9 mm 3 mps 733 mmHg 98%
    05:00 +5°C° 0.9 mm 3 mps 733 mmHg 98%
    06:00 +5°C° 0.9 mm 3 mps 734 mmHg 98%
    07:00 +5°C° 0.4 mm 3 mps 734 mmHg 97%
    08:00 +7°C° 0.4 mm 3 mps 734 mmHg 97%
    09:00 +7°C° 0.4 mm 2 mps 734 mmHg 97%
    10:00 +7°C° 0.6 mm 2 mps 734 mmHg 97%
    11:00 +7°C° 0.6 mm 2 mps 734 mmHg 97%
    12:00 +7°C° 0.6 mm 2 mps 734 mmHg 97%
    13:00 +8°C° 0.2 mm 2 mps 734 mmHg 95%
    14:00 +8°C° 0.2 mm 2 mps 734 mmHg 94%
    15:00 +9°C° 0.2 mm 1 mps 733 mmHg 92%
    16:00 +9°C° 0.1 mm 1 mps 733 mmHg 93%
    17:00 +9°C° 0.1 mm 1 mps 734 mmHg 93%
    18:00 +8°C° 0.1 mm 0 mps 734 mmHg 94%
    19:00 +7°C° 0 mm 0 mps 734 mmHg 95%
    20:00 +6°C° 0 mm 0 mps 734 mmHg 95%
    21:00 +5°C° 0 mm 0 mps 734 mmHg 96%
    22:00 +6°C° 0 mm 1 mps 734 mmHg 96%
    23:00 +5°C° 0 mm 1 mps 734 mmHg 97%

    29 April, Monday

    Time Temperature Precipitation Wind Pressure Humidity
    00:00 +5°C° 0 mm 1 mps 734 mmHg 97%
    01:00 +5°C° 0 mm 1 mps 733 mmHg 97%
    02:00 +4°C° 0 mm 1 mps 733 mmHg 97%
    03:00 +4°C° 0 mm 1 mps 733 mmHg 97%
    04:00 +5°C° 0 mm 1 mps 733 mmHg 96%
    05:00 +4°C° 0 mm 0 mps 733 mmHg 95%
    06:00 +5°C° 0 mm 0 mps 733 mmHg 94%
    07:00 +8°C° 0 mm 1 mps 732 mmHg 87%
    08:00 +10°C° 0 mm 1 mps 732 mmHg 79%
    09:00 +12°C° 0 mm 1 mps 732 mmHg 72%
    10:00 +13°C° 0 mm 1 mps 731 mmHg 70%
    11:00 +14°C° 0 mm 2 mps 731 mmHg 68%
    12:00 +14°C° 0 mm 2 mps 731 mmHg 65%
    13:00 +15°C° 0 mm 2 mps 730 mmHg 63%
    14:00 +15°C° 0 mm 2 mps 730 mmHg 62%
    15:00 +16°C° 0 mm 1 mps 729 mmHg 60%
    16:00 +15°C° 0 mm 1 mps 729 mmHg 66%
    17:00 +14°C° 0 mm 1 mps 729 mmHg 72%
    18:00 +13°C° 0 mm 1 mps 729 mmHg 78%
    19:00 +11°C° 0 mm 1 mps 729 mmHg 82%
    20:00 +9°C° 0 mm 1 mps 729 mmHg 86%
    21:00 +8°C° 0 mm 1 mps 729 mmHg 90%
    22:00 +7°C° 0 mm 1 mps 729 mmHg 91%
    23:00 +7°C° 0 mm 1 mps 729 mmHg 91%
    Show more